SCP
0 0 0 0 0 -0 0 0 0 0 0 0 0 0 0 -0 0 -0 0 -0 -0 -0 0 0 0 0 0 -0 -0 -0 -0 -0 0 0 0 0 0 -0 -0 -0 0 0 0 0 0 0 0 0 0
-0 0 0 0 0 0 0 0 0 0 -0 -0 0 0 0 0 0 -0 -0 -0 -0 -0 0 0 0 0 0 -0 -0 -0 -0 -0 0 0 0 0 -0 0 0 0 0 0 0 0 0 0 0 0 0
-0 0 0 0 0 0 0 0 0 0 0 0 0 0 0 0 0 -0 -0 -0 0 -0 -0 0 -0 -0 -0 -0 0 -0 0 0 0 0 0 0 -0 0 0 0 0 0 0 0 0 0 0 0 0
-0 0 0 -0 0 0 0 0 0 0 0 0 -0 0 0 -0 0 -0 -0 0 0 -0 -0 0 -0 -0 -0 -0 -0 -0 -0 0 0 0 0 0 -0 0 0 0 0 0 0 0 0 0 0 0 0
-0 0 0 0 0 0 0 0 0 0 0 0 0 0 0 0 -0 -0 -0 -0 0 -0 0 0 0 0 -0 -0 -0 0 0 0 0 0 0 0 0 0 0 0 0 0 0 0 0 0 0 0 0
0 0 0 0 0 0 0 0 0 0 0 0 0 0 0 -0 -0 -0 -0 -0 -0 0 0 0 0 0 0 0 0 0 0 0 0 0 0 0 0 0 0 0 0 0 0 0 0 0 0 0 0
0 0 0 0 -0 0 -0 -0 0 0 0 0 0 0 0 0 -0 -0 -0 -0 0 0 0 0 0 0 0 0 0 0 0 0 -0 0 0 0 0 0 0 0 0 0 0 0 0 0 0 0 0
0 0 0 0 -0 0 -0 -0 0 0 0 0 0 0 0 -0 -0 -0 -0 -0 0 0 0 0 0 0 0 0 -0 0 0 0 0 0 0 0 0 0 0 0 0 0 0 0 0 0 0 0 0
0 0 0 -0 -0 0 0 0 0 0 -0 0 0 0 -0 0 -0 0 -0 -0 0 0 0 0 0 0 0 0 0 0 0 0 0 0 0 0 0 0 0 0 0 0 0 0 0 0 0 1 1
0 0 0 0 0 0 0 0 0 0 0 0 -0 -0 -0 -0 -0 -0 -0 -0 -0 -0 -0 0 0 0 0 -0 -0 -0 -0 -0 0 0 0 0 0 0 0 0 0 0 0 0 0 0 0 0 0
0 -0 0 0 0 0 0 -0 -0 -0 -0 0 -0 -0 0 0 -0 -0 -0 -0 -0 -0 -0 -0 -0 0 0 -0 -0 0 -0 -0 0 0 0 0 0 0 0 0 0 0 0 0 0 0 0 0 0
0 0 0 0 0 0 0 0 -0 -0 -0 -0 -0 -0 -0 -0 -0 -0 0 -0 -0 -0 -0 -0 0 0 0 0 0 0 0 0 0 0 0 0 0 0 0 0 0 0 0 0 0 0 0 0 0
0 0 -0 0 0 0 0 0 0 0 -0 -0 -0 -0 -0 -0 0 0 0 -0 -0 -0 -0 -0 -0 0 0 0 0 0 0 0 0 0 0 0 0 0 0 0 0 0 0 0 0 0 0 0 0
0 0 0 0 0 0 0 0 0 0 -0 -0 -0 -0 -0 -0 0 0 0 0 -0 -0 -0 -0 -0 0 -0 -0 0 0 0 0 0 0 0 0 0 0 0 0 0 0 0 0 0 0 0 0 0
0 0 0 0 0 0 0 0 0 -0 -0 -0 -0 -0 -0 0 0 0 0 0 -0 -0 -0 -0 -0 -0 -0 0 0 0 0 0 0 0 0 0 0 0 0 0 0 0 0 0 0 0 0 0 0
0 0 -0 0 0 0 0 0 0 -0 -0 -0 -0 -0 -0 -0 0 0 0 0 0 -0 -0 -0 -0 -0 -0 0 0 0 0 0 0 0 0 0 0 0 0 0 0 0 0 0 0 0 0 0 0
0 -0 -0 0 0 0 0 0 0 0 -0 -0 -0 0 -0 -0 -0 0 0 0 -0 -0 -0 -0 -0 -0 -0 0 0 0 0 0 0 0 0 0 0 0 0 0 0 0 0 0 0 0 0 0 0
0 -0 -0 0 0 0 0 0 0 0 0 -0 0 0 0 0 -0 -0 -0 0 0 -0 -0 -0 -0 -0 -0 -0 -0 0 0 0 0 0 0 0 0 0 0 0 0 0 0 0 0 0 0 0 0
0 -0 -0 -0 0 0 0 0 0 0 0 0 0 0 0 -0 0 0 0 0 0 0 0 -0 -0 -0 0 0 0 -0 0 0 0 0 0 0 0 -0 -0 0 0 0 0 0 0 0 0 0 0
0 -0 -0 -0 -0 0 0 0 0 0 0 0 0 0 0 0 -0 0 0 0 0 0 0 0 0 0 0 0 0 -0 -0 -0 -0 0 0 0 0 0 -0 -0 0 0 0 0 0 0 0 0 0
0 -0 -0 0 0 0 0 0 0 0 0 0 0 0 0 0 0 0 0 0 0 0 0 0 0 0 -0 0 0 0 0 0 0 0 -0 -0 -0 0 -0 -0 -0 -0 0 0 0 0 0 0 0
0 0 0 -0 0 0 0 0 0 0 0 0 0 0 0 0 0 0 0 0 0 0 0 0 0 -0 -0 -0 -0 0 -0 -0 -0 -0 -0 -0 -0 -0 -0 0 -0 -0 -0 0 0 0 0 0 0
0 0 0 0 0 -0 0 0 0 0 0 -0 0 0 0 0 0 0 -0 -0 0 0 0 0 0 -0 -0 -0 -0 -0 -0 -0 -0 -0 -0 -0 -0 -0 -0 -0 -0 -0 0 0 0 0 0 0 0
0 0 0 0 0 0 0 0 0 0 -0 -0 0 0 0 0 0 0 0 0 0 0 0 0 0 0 -0 -0 -0 0 -0 -0 -0 -0 -0 -0 -0 -0 0 0 0 -0 -0 -0 -0 0 0 0 0
0 0 0 0 0 0 0 0 -0 -0 0 -0 -0 0 0 0 0 0 0 0 0 0 0 0 0 0 -0 0 0 0 0 0 0 0 0 0 0 0 -0 -0 -0 -0 -0 -0 0 -0 -0 0 0
0 0 0 -0 -0 0 0 0 -0 -0 -0 0 0 0 0 0 0 0 0 0 0 0 0 0 0 0 0 -0 0 0 0 0 0 -0 0 -0 0 0 -0 -0 -0 -0 0 0 0 0 -0 0 0
0 0 0 0 0 0 0 -0 -0 -0 -0 -0 -0 -0 0 0 0 0 0 0 0 0 0 0 0 0 0 0 -0 -0 0 0 0 0 -0 -0 -0 -0 -0 0 -0 -0 -0 -0 -0 -0 -0 -0 0
0 0 0 0 0 0 0 0 0 -0 -0 0 -0 0 0 0 0 0 0 0 0 0 0 0 0 0 0 0 0 -0 0 0 0 0 -0 0 -0 -0 0 0 -0 -0 -0 -0 -0 -0 -0 -0 0
0 0 0 0 0 0 0 -0 -0 -0 -0 -0 -0 0 0 -0 0 0 0 0 0 0 0 0 0 0 0 0 0 0 -0 -0 -0 0 0 0 0 0 0 0 0 -0 -0 -0 -0 -0 -0 -0 -0
0 0 0 0 0 0 0 0 0 -0 -0 -0 0 0 0 -0 0 0 0 0 0 0 0 0 0 0 0 0 0 0 0 0 0 0 0 0 0 0 0 0 0 0 0 0 -0 0 0 0 0
Wind_Speed_500mb
3 4 10 5 7 10 4 6 10 15 12 15 35 15 10 13 2 8 46 44 49 34 27 24 22 24 25 23 24 24 29 29 34 36 34 33 30 29 27 27 26 22 25 29 31 32 32 31 30
5 6 5 4 9 8 5 3 11 11 16 34 20 27 9 7 16 51 53 53 38 27 26 24 21 21 23 23 25 24 31 30 34 31 31 29 27 26 23 22 22 23 26 27 28 28 29 26 28
5 7 4 6 6 7 8 3 12 22 31 23 12 22 8 4 38 64 55 45 34 26 25 20 19 19 20 22 23 27 32 31 29 29 29 27 26 25 25 23 18 21 26 28 25 24 27 28 26
4 3 0 8 7 4 8 9 36 18 26 17 30 15 14 19 53 44 47 39 31 26 21 19 16 17 19 23 24 27 28 28 26 27 27 26 25 24 22 21 22 24 27 26 23 24 26 31 30
2 1 6 7 5 4 10 25 21 9 11 24 15 10 19 22 27 42 39 33 28 27 21 18 15 15 19 23 25 26 26 24 24 25 24 23 22 22 21 22 24 22 23 21 23 24 24 24 29
2 1 8 6 5 6 9 17 20 18 28 29 29 29 7 14 37 41 37 34 28 23 22 19 16 18 22 24 25 25 26 24 23 24 24 23 23 22 20 24 25 20 23 24 23 21 23 23 27
5 6 6 4 9 7 7 17 10 12 28 18 37 10 17 29 41 39 35 30 24 21 22 22 19 23 22 24 26 25 24 23 22 23 24 24 22 25 26 25 23 22 21 24 22 20 22 21 22
5 5 6 3 10 4 13 8 21 21 13 38 40 12 19 46 42 39 31 28 24 21 21 25 25 24 27 27 26 26 25 24 23 24 25 25 25 25 27 28 28 25 23 23 20 16 16 19 20
3 5 6 6 10 7 29 12 29 13 36 17 3 48 53 51 45 38 32 31 27 27 24 28 27 26 26 27 26 25 24 25 26 26 25 27 29 32 34 32 31 29 25 22 20 16 12 13 16
7 5 2 7 6 5 13 21 12 19 23 19 44 50 53 53 45 42 39 37 34 32 30 28 28 28 29 26 25 23 25 29 28 28 28 28 32 36 32 27 25 22 21 19 19 18 15 13 13
5 5 7 19 15 14 6 20 8 40 8 27 62 63 59 52 44 40 37 34 31 32 31 31 28 25 25 25 27 27 28 29 29 30 27 27 27 26 21 18 14 13 12 16 15 14 11 9 8
3 7 14 8 14 10 8 2 13 29 10 56 63 64 62 54 47 40 35 35 37 34 33 32 29 29 28 29 28 29 28 27 26 27 26 23 22 18 11 7 12 15 19 17 15 13 10 6 6
4 5 16 10 9 12 15 11 8 26 31 58 57 62 59 54 44 34 30 34 33 35 35 35 33 32 34 30 28 26 27 26 24 26 23 19 15 11 7 6 13 15 13 15 15 14 11 10 9
10 19 16 11 4 12 12 7 19 27 47 59 59 62 57 55 50 41 39 38 36 37 42 37 36 37 32 30 24 25 27 32 31 23 21 17 17 14 17 13 17 19 15 13 9 8 8 10 11
24 9 10 4 4 3 20 12 13 52 63 65 64 62 57 59 53 45 42 44 40 42 43 40 38 32 27 28 26 24 24 23 19 19 16 17 15 19 18 13 14 11 14 9 7 7 6 8 11
5 7 1 12 7 9 10 11 11 68 68 59 58 61 60 63 55 47 41 40 42 42 44 41 35 29 27 27 24 20 17 16 17 17 16 16 14 15 15 16 17 16 11 12 14 12 16 13 15
9 5 8 7 11 8 5 7 18 63 65 54 53 58 58 58 55 48 46 41 45 45 44 41 35 29 27 27 22 19 16 12 20 16 15 15 15 16 19 20 17 14 14 14 17 16 15 14 11
6 6 6 6 8 1 9 10 17 41 49 56 50 54 52 60 63 56 48 45 46 49 43 37 32 29 31 37 29 25 19 17 18 13 16 14 11 9 16 16 13 13 11 11 12 13 8 9 6
12 13 8 6 4 11 5 8 16 17 25 34 42 50 58 67 66 59 53 47 50 48 45 41 39 36 37 42 36 29 27 20 16 11 9 14 11 4 5 7 10 9 5 5 8 8 10 4 8
8 13 8 4 21 9 6 13 7 7 4 24 45 51 63 64 64 63 59 54 52 51 48 44 43 42 37 37 33 28 26 22 19 17 9 15 12 6 4 6 12 9 3 3 2 3 4 2 3
7 5 7 2 13 3 9 8 9 9 10 10 26 53 62 71 73 70 66 62 56 56 53 51 48 46 38 32 37 32 29 25 20 20 16 14 12 12 8 8 8 11 8 6 7 5 3 1 3
13 7 13 15 6 4 3 4 16 20 14 12 27 34 64 73 74 73 71 66 63 56 52 51 53 52 45 38 36 36 34 29 22 23 19 17 17 13 11 11 8 8 8 9 11 4 5 1 3
5 17 13 6 6 7 8 5 6 24 27 25 31 38 49 73 79 76 76 71 65 58 52 49 52 57 53 49 38 39 34 28 25 23 23 19 17 16 17 10 13 11 11 11 11 9 6 2 1
22 12 9 7 4 3 9 7 8 14 41 35 31 45 51 68 80 81 75 71 69 62 55 51 47 50 56 52 43 37 35 32 32 28 24 24 22 19 20 18 12 17 13 10 14 15 11 8 4
6 11 4 6 6 5 10 6 18 14 28 51 47 51 54 67 79 82 77 76 74 66 58 57 56 55 56 51 48 44 36 33 33 29 27 28 27 28 24 25 22 18 18 17 17 17 19 16 13
9 12 10 9 4 8 8 11 11 14 27 64 66 66 63 69 78 89 86 81 78 69 61 58 61 58 57 53 50 47 39 34 30 28 26 28 29 28 28 31 29 23 21 24 24 20 18 21 20
9 7 7 11 5 4 8 11 10 7 12 25 48 50 71 78 89 91 91 87 78 75 67 59 59 58 58 55 51 52 42 34 37 32 29 34 34 32 32 32 32 35 26 26 27 28 24 22 22
11 11 3 4 9 8 9 5 8 21 15 15 24 46 57 66 84 84 93 91 82 76 67 61 56 49 52 57 54 54 53 44 33 35 35 29 25 25 26 31 28 34 29 28 31 26 26 22 22
4 3 5 4 5 8 4 5 11 24 15 11 11 25 42 61 79 88 93 93 83 79 72 66 61 55 51 51 53 51 53 51 44 39 32 29 24 23 27 30 36 33 34 29 26 26 25 22 22
10 9 10 7 6 3 4 7 16 21 20 9 10 13 34 62 76 80 87 93 88 82 81 72 66 60 54 44 43 45 46 50 49 43 35 33 29 25 25 34 34 35 35 35 33 25 22 21 24
Wind_Direction_500mb
69 359 356 46 61 64 59 143 155 113 154 179 158 147 134 52 97 154 143 148 152 144 137 132 129 121 118 112 107 102 115 107 110 111 113 115 111 108 109 105 105 104 106 106 107 102 100 97 94
24 355 22 68 80 82 295 176 141 141 162 146 108 129 66 58 106 132 144 155 154 152 142 140 126 118 110 108 107 103 115 119 118 113 115 118 116 115 108 109 112 106 112 105 101 96 93 91 88
49 21 331 91 103 137 165 143 125 112 128 133 107 76 60 85 131 143 149 155 158 154 148 137 130 121 112 112 111 115 116 121 121 118 115 113 115 111 103 105 109 104 112 113 101 95 83 82 85
31 177 220 77 75 16 149 133 127 118 88 103 111 70 72 129 135 149 153 156 156 155 151 138 137 128 128 125 123 122 126 122 116 112 110 113 113 117 106 109 108 109 114 115 101 90 79 82 79
351 217 68 75 60 35 78 127 119 89 78 104 111 87 101 134 151 152 153 156 159 159 159 151 144 142 137 135 132 127 125 123 116 114 114 117 115 113 115 108 104 111 123 121 108 98 87 84 75
358 56 59 79 78 47 64 133 101 85 103 95 95 104 101 155 158 155 156 155 161 165 161 154 147 146 145 137 136 132 127 119 116 112 108 108 109 105 106 114 121 123 125 128 118 100 87 80 77
97 78 110 102 115 89 124 113 75 117 111 87 130 90 136 152 160 153 154 154 160 167 160 150 146 142 141 140 139 134 129 125 119 113 111 112 115 112 109 109 112 110 114 126 118 102 84 68 70
84 79 113 92 148 112 129 94 140 108 77 132 118 140 160 159 159 156 156 163 168 168 156 155 144 151 148 142 141 140 139 129 120 114 114 113 110 107 106 106 101 100 107 126 126 113 90 75 64
81 71 127 100 132 126 136 132 157 136 128 131 123 149 153 155 157 161 164 171 173 169 158 147 152 157 147 144 142 141 138 131 122 118 116 113 109 107 101 97 96 96 97 107 124 139 117 86 61
59 61 96 44 45 34 129 152 133 127 125 92 122 147 155 159 163 167 169 170 170 164 156 157 155 154 151 138 129 132 140 136 134 129 124 117 115 110 105 103 99 95 100 102 107 113 102 81 56
136 165 150 48 61 40 47 130 104 143 122 169 147 154 161 162 165 169 167 168 156 155 156 154 153 148 140 133 134 138 138 137 142 136 132 125 122 116 111 103 91 95 123 126 124 114 104 82 61
85 46 122 87 41 38 31 249 148 212 184 163 155 157 162 167 169 168 162 161 159 159 153 154 152 146 147 148 143 133 131 136 139 140 134 129 124 115 105 72 73 76 111 123 134 134 138 127 76
108 124 90 119 27 354 330 268 211 197 158 160 160 168 169 170 171 171 164 161 162 158 154 153 154 148 144 145 144 143 139 135 137 139 138 131 121 108 73 76 76 79 76 110 117 112 108 100 82
96 110 95 54 56 305 332 222 164 162 163 162 167 176 178 177 176 175 177 168 163 154 149 144 148 149 148 152 147 146 134 130 132 129 134 137 129 108 97 108 103 103 102 109 109 108 108 99 87
138 94 92 168 171 298 328 236 218 165 167 169 175 183 187 187 186 188 183 175 168 162 158 147 145 156 155 160 149 145 148 148 137 147 127 125 117 115 115 121 119 115 107 108 105 117 127 113 92
86 71 132 33 71 352 24 273 227 166 164 170 176 185 190 193 194 193 189 179 176 175 170 167 165 164 158 160 156 154 153 156 147 142 141 136 126 129 130 122 120 110 93 75 51 89 108 117 103
18 101 102 115 63 290 203 290 172 169 168 173 179 180 191 197 202 200 194 183 183 181 177 178 176 176 180 178 175 166 162 144 168 152 152 141 133 137 139 121 120 110 99 64 72 109 104 99 96
143 140 92 69 48 320 314 264 175 176 178 176 183 183 185 200 204 200 194 188 185 186 185 185 180 181 183 178 177 168 163 153 162 162 160 164 138 122 137 115 118 119 95 66 61 97 132 107 33
140 142 127 150 172 11 343 320 162 151 159 182 187 187 189 205 205 204 199 194 193 193 192 189 184 180 175 178 177 180 180 171 156 143 166 178 164 98 127 140 143 147 121 93 85 97 92 91 42
119 128 163 143 149 186 198 258 239 28 107 178 191 193 202 204 207 206 203 199 201 200 199 195 191 189 188 191 184 182 184 183 178 187 185 170 175 181 182 177 181 176 171 162 142 128 77 251 353
149 162 166 171 126 139 145 290 255 231 256 194 185 206 206 205 204 205 205 202 202 205 205 204 200 199 198 198 192 190 195 198 194 199 193 194 187 177 186 187 189 221 238 221 212 221 238 249 210
147 155 123 131 102 148 71 261 213 218 236 216 216 187 200 204 204 204 205 204 207 206 209 210 205 201 199 200 203 208 200 206 218 205 210 198 195 188 183 203 227 247 240 234 215 185 229 287 268
115 125 124 140 102 145 185 238 236 179 223 227 219 197 197 207 206 206 209 207 208 206 209 207 209 208 212 207 210 208 210 213 208 212 217 215 207 198 209 226 214 219 235 229 226 222 211 202 37
135 88 61 33 128 22 175 174 242 190 208 220 213 201 200 206 210 212 209 209 208 208 207 205 203 203 202 204 210 209 217 215 215 216 216 221 229 229 231 230 233 223 236 228 229 237 241 234 243
99 91 39 22 9 256 138 176 256 231 218 190 199 202 200 209 211 211 208 209 207 207 206 205 203 203 205 213 217 219 223 223 220 227 229 229 234 241 246 243 247 246 245 242 239 249 249 247 245
161 148 162 154 172 282 127 228 252 248 198 183 196 205 201 205 209 212 209 208 207 206 205 207 209 210 215 218 220 223 225 225 231 229 237 241 241 246 253 246 250 248 254 257 241 239 249 249 243
211 190 200 105 102 324 234 275 348 310 156 194 206 198 198 201 206 209 211 209 209 207 207 209 210 214 217 220 221 224 230 234 231 234 248 248 249 241 241 245 250 243 253 254 245 237 250 255 247
161 157 95 349 126 236 280 299 289 338 284 200 193 208 202 201 203 205 210 208 210 211 212 212 215 215 219 222 229 232 235 237 242 242 247 262 243 235 241 240 242 235 246 251 243 241 243 251 248
64 163 63 135 150 175 290 279 337 310 296 192 205 217 210 196 201 205 209 211 212 212 214 215 217 219 218 225 229 235 237 238 243 245 251 239 231 245 253 240 240 238 235 246 241 248 234 242 241
174 179 148 134 243 211 174 279 347 336 345 47 131 188 211 201 205 207 208 212 214 215 216 218 221 221 221 221 228 233 237 236 241 245 245 233 235 247 253 243 238 236 235 233 240 233 235 245 250
Wind_Speed_850mb
3 4 10 5 7 10 4 6 10 15 12 15 35 15 10 13 2 8 46 44 49 34 27 24 22 24 25 23 24 24 29 29 34 36 34 33 30 29 27 27 26 22 25 29 31 32 32 31 30
5 6 5 4 9 8 5 3 11 11 16 34 20 27 9 7 16 51 53 53 38 27 26 24 21 21 23 23 25 24 31 30 34 31 31 29 27 26 23 22 22 23 26 27 28 28 29 26 28
5 7 4 6 6 7 8 3 12 22 31 23 12 22 8 4 38 64 55 45 34 26 25 20 19 19 20 22 23 27 32 31 29 29 29 27 26 25 25 23 18 21 26 28 25 24 27 28 26
4 3 0 8 7 4 8 9 36 18 26 17 30 15 14 19 53 44 47 39 31 26 21 19 16 17 19 23 24 27 28 28 26 27 27 26 25 24 22 21 22 24 27 26 23 24 26 31 30
2 1 6 7 5 4 10 25 21 9 11 24 15 10 19 22 27 42 39 33 28 27 21 18 15 15 19 23 25 26 26 24 24 25 24 23 22 22 21 22 24 22 23 21 23 24 24 24 29
2 1 8 6 5 6 9 17 20 18 28 29 29 29 7 14 37 41 37 34 28 23 22 19 16 18 22 24 25 25 26 24 23 24 24 23 23 22 20 24 25 20 23 24 23 21 23 23 27
5 6 6 4 9 7 7 17 10 12 28 18 37 10 17 29 41 39 35 30 24 21 22 22 19 23 22 24 26 25 24 23 22 23 24 24 22 25 26 25 23 22 21 24 22 20 22 21 22
5 5 6 3 10 4 13 8 21 21 13 38 40 12 19 46 42 39 31 28 24 21 21 25 25 24 27 27 26 26 25 24 23 24 25 25 25 25 27 28 28 25 23 23 20 16 16 19 20
3 5 6 6 10 7 29 12 29 13 36 17 3 48 53 51 45 38 32 31 27 27 24 28 27 26 26 27 26 25 24 25 26 26 25 27 29 32 34 32 31 29 25 22 20 16 12 13 16
7 5 2 7 6 5 13 21 12 19 23 19 44 50 53 53 45 42 39 37 34 32 30 28 28 28 29 26 25 23 25 29 28 28 28 28 32 36 32 27 25 22 21 19 19 18 15 13 13
5 5 7 19 15 14 6 20 8 40 8 27 62 63 59 52 44 40 37 34 31 32 31 31 28 25 25 25 27 27 28 29 29 30 27 27 27 26 21 18 14 13 12 16 15 14 11 9 8
3 7 14 8 14 10 8 2 13 29 10 56 63 64 62 54 47 40 35 35 37 34 33 32 29 29 28 29 28 29 28 27 26 27 26 23 22 18 11 7 12 15 19 17 15 13 10 6 6
4 5 16 10 9 12 15 11 8 26 31 58 57 62 59 54 44 34 30 34 33 35 35 35 33 32 34 30 28 26 27 26 24 26 23 19 15 11 7 6 13 15 13 15 15 14 11 10 9
10 19 16 11 4 12 12 7 19 27 47 59 59 62 57 55 50 41 39 38 36 37 42 37 36 37 32 30 24 25 27 32 31 23 21 17 17 14 17 13 17 19 15 13 9 8 8 10 11
24 9 10 4 4 3 20 12 13 52 63 65 64 62 57 59 53 45 42 44 40 42 43 40 38 32 27 28 26 24 24 23 19 19 16 17 15 19 18 13 14 11 14 9 7 7 6 8 11
5 7 1 12 7 9 10 11 11 68 68 59 58 61 60 63 55 47 41 40 42 42 44 41 35 29 27 27 24 20 17 16 17 17 16 16 14 15 15 16 17 16 11 12 14 12 16 13 15
9 5 8 7 11 8 5 7 18 63 65 54 53 58 58 58 55 48 46 41 45 45 44 41 35 29 27 27 22 19 16 12 20 16 15 15 15 16 19 20 17 14 14 14 17 16 15 14 11
6 6 6 6 8 1 9 10 17 41 49 56 50 54 52 60 63 56 48 45 46 49 43 37 32 29 31 37 29 25 19 17 18 13 16 14 11 9 16 16 13 13 11 11 12 13 8 9 6
12 13 8 6 4 11 5 8 16 17 25 34 42 50 58 67 66 59 53 47 50 48 45 41 39 36 37 42 36 29 27 20 16 11 9 14 11 4 5 7 10 9 5 5 8 8 10 4 8
8 13 8 4 21 9 6 13 7 7 4 24 45 51 63 64 64 63 59 54 52 51 48 44 43 42 37 37 33 28 26 22 19 17 9 15 12 6 4 6 12 9 3 3 2 3 4 2 3
7 5 7 2 13 3 9 8 9 9 10 10 26 53 62 71 73 70 66 62 56 56 53 51 48 46 38 32 37 32 29 25 20 20 16 14 12 12 8 8 8 11 8 6 7 5 3 1 3
13 7 13 15 6 4 3 4 16 20 14 12 27 34 64 73 74 73 71 66 63 56 52 51 53 52 45 38 36 36 34 29 22 23 19 17 17 13 11 11 8 8 8 9 11 4 5 1 3
5 17 13 6 6 7 8 5 6 24 27 25 31 38 49 73 79 76 76 71 65 58 52 49 52 57 53 49 38 39 34 28 25 23 23 19 17 16 17 10 13 11 11 11 11 9 6 2 1
22 12 9 7 4 3 9 7 8 14 41 35 31 45 51 68 80 81 75 71 69 62 55 51 47 50 56 52 43 37 35 32 32 28 24 24 22 19 20 18 12 17 13 10 14 15 11 8 4
6 11 4 6 6 5 10 6 18 14 28 51 47 51 54 67 79 82 77 76 74 66 58 57 56 55 56 51 48 44 36 33 33 29 27 28 27 28 24 25 22 18 18 17 17 17 19 16 13
9 12 10 9 4 8 8 11 11 14 27 64 66 66 63 69 78 89 86 81 78 69 61 58 61 58 57 53 50 47 39 34 30 28 26 28 29 28 28 31 29 23 21 24 24 20 18 21 20
9 7 7 11 5 4 8 11 10 7 12 25 48 50 71 78 89 91 91 87 78 75 67 59 59 58 58 55 51 52 42 34 37 32 29 34 34 32 32 32 32 35 26 26 27 28 24 22 22
11 11 3 4 9 8 9 5 8 21 15 15 24 46 57 66 84 84 93 91 82 76 67 61 56 49 52 57 54 54 53 44 33 35 35 29 25 25 26 31 28 34 29 28 31 26 26 22 22
4 3 5 4 5 8 4 5 11 24 15 11 11 25 42 61 79 88 93 93 83 79 72 66 61 55 51 51 53 51 53 51 44 39 32 29 24 23 27 30 36 33 34 29 26 26 25 22 22
10 9 10 7 6 3 4 7 16 21 20 9 10 13 34 62 76 80 87 93 88 82 81 72 66 60 54 44 43 45 46 50 49 43 35 33 29 25 25 34 34 35 35 35 33 25 22 21 24
Wind_Direction_850mb
69 359 356 46 61 64 59 143 155 113 154 179 158 147 134 52 97 154 143 148 152 144 137 132 129 121 118 112 107 102 115 107 110 111 113 115 111 108 109 105 105 104 106 106 107 102 100 97 94
24 355 22 68 80 82 295 176 141 141 162 146 108 129 66 58 106 132 144 155 154 152 142 140 126 118 110 108 107 103 115 119 118 113 115 118 116 115 108 109 112 106 112 105 101 96 93 91 88
49 21 331 91 103 137 165 143 125 112 128 133 107 76 60 85 131 143 149 155 158 154 148 137 130 121 112 112 111 115 116 121 121 118 115 113 115 111 103 105 109 104 112 113 101 95 83 82 85
31 177 220 77 75 16 149 133 127 118 88 103 111 70 72 129 135 149 153 156 156 155 151 138 137 128 128 125 123 122 126 122 116 112 110 113 113 117 106 109 108 109 114 115 101 90 79 82 79
351 217 68 75 60 35 78 127 119 89 78 104 111 87 101 134 151 152 153 156 159 159 159 151 144 142 137 135 132 127 125 123 116 114 114 117 115 113 115 108 104 111 123 121 108 98 87 84 75
358 56 59 79 78 47 64 133 101 85 103 95 95 104 101 155 158 155 156 155 161 165 161 154 147 146 145 137 136 132 127 119 116 112 108 108 109 105 106 114 121 123 125 128 118 100 87 80 77
97 78 110 102 115 89 124 113 75 117 111 87 130 90 136 152 160 153 154 154 160 167 160 150 146 142 141 140 139 134 129 125 119 113 111 112 115 112 109 109 112 110 114 126 118 102 84 68 70
84 79 113 92 148 112 129 94 140 108 77 132 118 140 160 159 159 156 156 163 168 168 156 155 144 151 148 142 141 140 139 129 120 114 114 113 110 107 106 106 101 100 107 126 126 113 90 75 64
81 71 127 100 132 126 136 132 157 136 128 131 123 149 153 155 157 161 164 171 173 169 158 147 152 157 147 144 142 141 138 131 122 118 116 113 109 107 101 97 96 96 97 107 124 139 117 86 61
59 61 96 44 45 34 129 152 133 127 125 92 122 147 155 159 163 167 169 170 170 164 156 157 155 154 151 138 129 132 140 136 134 129 124 117 115 110 105 103 99 95 100 102 107 113 102 81 56
136 165 150 48 61 40 47 130 104 143 122 169 147 154 161 162 165 169 167 168 156 155 156 154 153 148 140 133 134 138 138 137 142 136 132 125 122 116 111 103 91 95 123 126 124 114 104 82 61
85 46 122 87 41 38 31 249 148 212 184 163 155 157 162 167 169 168 162 161 159 159 153 154 152 146 147 148 143 133 131 136 139 140 134 129 124 115 105 72 73 76 111 123 134 134 138 127 76
108 124 90 119 27 354 330 268 211 197 158 160 160 168 169 170 171 171 164 161 162 158 154 153 154 148 144 145 144 143 139 135 137 139 138 131 121 108 73 76 76 79 76 110 117 112 108 100 82
96 110 95 54 56 305 332 222 164 162 163 162 167 176 178 177 176 175 177 168 163 154 149 144 148 149 148 152 147 146 134 130 132 129 134 137 129 108 97 108 103 103 102 109 109 108 108 99 87
138 94 92 168 171 298 328 236 218 165 167 169 175 183 187 187 186 188 183 175 168 162 158 147 145 156 155 160 149 145 148 148 137 147 127 125 117 115 115 121 119 115 107 108 105 117 127 113 92
86 71 132 33 71 352 24 273 227 166 164 170 176 185 190 193 194 193 189 179 176 175 170 167 165 164 158 160 156 154 153 156 147 142 141 136 126 129 130 122 120 110 93 75 51 89 108 117 103
18 101 102 115 63 290 203 290 172 169 168 173 179 180 191 197 202 200 194 183 183 181 177 178 176 176 180 178 175 166 162 144 168 152 152 141 133 137 139 121 120 110 99 64 72 109 104 99 96
143 140 92 69 48 320 314 264 175 176 178 176 183 183 185 200 204 200 194 188 185 186 185 185 180 181 183 178 177 168 163 153 162 162 160 164 138 122 137 115 118 119 95 66 61 97 132 107 33
140 142 127 150 172 11 343 320 162 151 159 182 187 187 189 205 205 204 199 194 193 193 192 189 184 180 175 178 177 180 180 171 156 143 166 178 164 98 127 140 143 147 121 93 85 97 92 91 42
119 128 163 143 149 186 198 258 239 28 107 178 191 193 202 204 207 206 203 199 201 200 199 195 191 189 188 191 184 182 184 183 178 187 185 170 175 181 182 177 181 176 171 162 142 128 77 251 353
149 162 166 171 126 139 145 290 255 231 256 194 185 206 206 205 204 205 205 202 202 205 205 204 200 199 198 198 192 190 195 198 194 199 193 194 187 177 186 187 189 221 238 221 212 221 238 249 210
147 155 123 131 102 148 71 261 213 218 236 216 216 187 200 204 204 204 205 204 207 206 209 210 205 201 199 200 203 208 200 206 218 205 210 198 195 188 183 203 227 247 240 234 215 185 229 287 268
115 125 124 140 102 145 185 238 236 179 223 227 219 197 197 207 206 206 209 207 208 206 209 207 209 208 212 207 210 208 210 213 208 212 217 215 207 198 209 226 214 219 235 229 226 222 211 202 37
135 88 61 33 128 22 175 174 242 190 208 220 213 201 200 206 210 212 209 209 208 208 207 205 203 203 202 204 210 209 217 215 215 216 216 221 229 229 231 230 233 223 236 228 229 237 241 234 243
99 91 39 22 9 256 138 176 256 231 218 190 199 202 200 209 211 211 208 209 207 207 206 205 203 203 205 213 217 219 223 223 220 227 229 229 234 241 246 243 247 246 245 242 239 249 249 247 245
161 148 162 154 172 282 127 228 252 248 198 183 196 205 201 205 209 212 209 208 207 206 205 207 209 210 215 218 220 223 225 225 231 229 237 241 241 246 253 246 250 248 254 257 241 239 249 249 243
211 190 200 105 102 324 234 275 348 310 156 194 206 198 198 201 206 209 211 209 209 207 207 209 210 214 217 220 221 224 230 234 231 234 248 248 249 241 241 245 250 243 253 254 245 237 250 255 247
161 157 95 349 126 236 280 299 289 338 284 200 193 208 202 201 203 205 210 208 210 211 212 212 215 215 219 222 229 232 235 237 242 242 247 262 243 235 241 240 242 235 246 251 243 241 243 251 248
64 163 63 135 150 175 290 279 337 310 296 192 205 217 210 196 201 205 209 211 212 212 214 215 217 219 218 225 229 235 237 238 243 245 251 239 231 245 253 240 240 238 235 246 241 248 234 242 241
174 179 148 134 243 211 174 279 347 336 345 47 131 188 211 201 205 207 208 212 214 215 216 218 221 221 221 221 228 233 237 236 241 245 245 233 235 247 253 243 238 236 235 233 240 233 235 245 250